Regional Weather Roundup
Issued by NWS

Home | Current Version | Previous Version | Graphics & Text | Print | Product List | Glossary On
Versions: 1 2 3 4 5 6 7 8 9 10 11 12 13 14 15 16 17 18 19 20 21 22 23 24 25 26 27 28 29 30 31 32 33 34 35 36 37 38 39 40 41 42 43 44 45 46 47 48 49 50
000
ASUS43 KMKX 110600
RWRWI

WISCONSIN REGIONAL WEATHER ROUNDUP
NATIONAL WEATHER SERVICE MILWAUKEE/SULLIVAN WI
100 AM CDT FRI JUL 11 2014

NOTE: "FAIR" INDICATES FEW OR NO CLOUDS BELOW 12,000 FEET WITH NO
SIGNIFICANT WEATHER AND/OR OBSTRUCTIONS TO VISIBILITY.

WIZ001-002-006>008-014>016-023>028-110700-
NORTHWEST WISCONSIN

CITY           SKY/WX    TMP DP  RH WIND       PRES   REMARKS
SUPERIOR ARPT  MOCLDY    54  49  85 NE5       29.99S
ASHLAND        CLEAR     69  62  78 S7        30.01F
6HR MIN TEMP:  60; 6HR MAX TEMP:  77;

HAYWARD        PTCLDY    69  64  84 S8        30.03F
6HR MIN TEMP:  69; 6HR MAX TEMP:  76;

SIREN          CLOUDY    74  58  58 S8G16     30.00S
RICE LAKE      MOCLDY    67  62  85 SE5       30.06R
LADYSMITH      MOCLDY    69  64  83 S7        30.08S
EAU CLAIRE     PTCLDY    70  63  78 S9        30.05S
6HR MIN TEMP:  70; 6HR MAX TEMP:  78;

MENOMONIE      PTCLDY    68  60  73 S6        30.05R
NEW RICHMOND   MOCLDY    72  58  60 S9G17     30.02S
OSCEOLA        MOCLDY    73  60  62 S10G16    30.03R
$$

WIZ003>005-009-010-017-018-110700-
NORTH CENTRAL WISCONSIN

CITY           SKY/WX    TMP DP  RH WIND       PRES   REMARKS
WOODRUFF       MOCLDY    66  60  82 S6        30.10S
RHINELANDER    CLOUDY    64  59  83 S5        30.12R
6HR MIN TEMP:  64; 6HR MAX TEMP:  74;

EAGLE RIVER    CLOUDY    63  56  79 S3        30.11R
LAND O LAKES   CLOUDY    62  57  84 S3        30.12R
PHILLIPS       CLOUDY    66  63  88 S7        30.08R
TOMAHAWK       MOCLDY    63  60  88 CALM      30.11S
MEDFORD        CLOUDY    65  63  93 S5        30.11R
MERRILL        MOCLDY    66  61  84 CALM      30.11R
$$

WIZ029-030-035-036-043>047-110700-
CENTRAL WISCONSIN

CITY           SKY/WX    TMP DP  RH WIND       PRES   REMARKS
WAUSAU         MOCLDY    68  61  78 SE6       30.10R
6HR MIN TEMP:  68; 6HR MAX TEMP:  77;

MOSINEE        MOCLDY    64  61  88 S5        30.13R
MARSHFIELD     PTCLDY    66  62  87 S8        30.11R
6HR MIN TEMP:  66; 6HR MAX TEMP:  74;

STEVENS POINT  MOCLDY    66  60  82 SE5       30.13R
WAUPACA        MOCLDY    66  59  77 SE3       30.13S
WAUTOMA        NOT AVBL
WISC RAPIDS    PTCLDY    67  61  81 S6        30.12S
6HR MIN TEMP:  67; 6HR MAX TEMP:  78;

CAMP DOUGLAS   NOT AVBL
$$

WIZ011>013-019>022-031-037>040-048>050-110700-
NORTHEAST WISCONSIN

CITY           SKY/WX    TMP DP  RH WIND       PRES   REMARKS
ANTIGO         CLOUDY    62  59  90 S6        30.14R
STURGEON BAY   PTCLDY    61  46  59 S9        30.15S
6HR MIN TEMP:  61; 6HR MAX TEMP:  64;

GREEN BAY      MOCLDY    63  52  67 S7        30.15R
6HR MIN TEMP:  63; 6HR MAX TEMP:  72;

MANITOWOC      NOT AVBL
APPLETON       MOCLDY    64  52  63 S9        30.15S
CLINTONVILLE   MOCLDY    63  55  77 S7        30.13R
OSHKOSH        MOCLDY    62  54  74 S10       30.14S
6HR MIN TEMP:  62; 6HR MAX TEMP:  74;

$$

WIZ032>034-041-042-053>061-110700-
SOUTHWEST WISCONSIN

CITY           SKY/WX    TMP DP  RH WIND       PRES   REMARKS
LA CROSSE      CLEAR     70  62  76 S6        30.08S
6HR MIN TEMP:  70; 6HR MAX TEMP:  81;

SPARTA         CLEAR     67  58  73 S3        30.11R
VIROQUA        FAIR      67  60  79 S7        30.13R
BOSCOBEL       CLEAR     66  60  81 W3        30.13R
6HR MIN TEMP:  65; 6HR MAX TEMP:  80;

PRAIRIE DU CHI PTCLDY    66  58  75 E5        30.11R
PLATTEVILLE    FAIR      65  61  86 SE8       30.16R
$$

WIZ056-057-062-063-064-067-068-110700-
SOUTH CENTRAL WISCONSIN

CITY           SKY/WX    TMP DP  RH WIND       PRES   REMARKS
BARABOO/DELLS  PTCLDY    66  59  78 S6        30.13R
LONE ROCK      NOT AVBL
WATERTOWN      MOCLDY    61  55  80 CALM      30.16S
MADISON        MOCLDY    69  59  70 S8        30.15R
6HR MIN TEMP:  69; 6HR MAX TEMP:  78;

MIDDLETON      FAIR      69  58  67 S7        30.16R
MONROE         MOCLDY    64  59  82 S8        30.16R
JANESVILLE     MOCLDY    64  55  72 S7        30.16S
$$

WIZ051-052-058>065-066-070>072-110700-
SOUTHEAST WISCONSIN

CITY           SKY/WX    TMP DP  RH WIND       PRES   REMARKS
MILWAUKEE      PTCLDY    63  50  62 S5        30.18R
6HR MIN TEMP:  62; 6HR MAX TEMP:  67;

WAUKESHA       PTCLDY    59  48  67 S5        30.18S
MILWAUKEE/TIMM PTCLDY    61  48  63 S3        30.19R
RACINE         PTCLDY    60  54  80 CALM      30.20R
6HR MIN TEMP:  60; 6HR MAX TEMP:  68;

BURLINGTON     PTCLDY    56  53  88 CALM      30.18R
KENOSHA        PTCLDY    61  51  70 S5        30.18R
6HR MIN TEMP:  61; 6HR MAX TEMP:  69;

FOND DU LAC    MOCLDY    62  53  72 S9        30.16R
6HR MIN TEMP:  62; 6HR MAX TEMP:  73;

SHEBOYGAN      MOCLDY    59  53  80 CALM      30.17R
6HR MIN TEMP:  58; 6HR MAX TEMP:  67;

WEST BEND      CLOUDY    61  50  67 CALM      30.17S
JUNEAU         MOCLDY    62  39  43 SE7       30.17S
$$

LSZ147-162-110700-
LAKE SUPERIOR

STATION/POSITION TIME  TEMP    WIND        PRES    WAVE
                       AIR SEA DIR/SP/G            HT/PER
                 (UTC) (F)     (DEG/KT/KT) (MB)    (FT/S)
W MID LAKE BUOY  0450   46 38  150/ 10/ 10 1016.4R   0
PORT WING        0540   55      CALM  /  3 1015.6F
SAXON HARBOR     0500          210/  2/  6 1016.3S
$$

LMZ867-665-643>646-110700-
LAKE MICHIGAN

STATION/POSITION TIME  TEMP    WIND        PRES    WAVE
                       AIR SEA DIR/SP/G            HT/PER
                 (UTC) (F)     (DEG/KT/KT) (MB)    (FT/S)
N MID LAKE BUOY  0450   58 55  190/ 10/ 10 1020.5F   0
NORTHPORT PIER   0500   62     170/  4/  9 1020.3F
SISTER BAY       0540   60     150/  8/ 13   N/A
ALGOMA LAKESHORE 0520          230/  7/  8   N/A
KEWAUNEE LAKESHO 0500   53     170/  3/  4 1021.4F
SHEBOYGAN LAKESH 0500   64     210/  9/ 10 1021.4F
PORT WASHINGTON  0540   62     240/  1/  3 1022.4R
MILWAUKEE LAKESH 0500   65     180/  5/  5   N/A
S MID LAKE BUOY  0450   61 60  140/  4/  4 1022.1F   0
KENOSHA   LAKESH 0500   64     190/  6/  7   N/A
$$

TC  - TEMPERATURE IN CELSIUS
VSB - VISIBILITY IN STATUTE MILES
WCI - WIND CHILL INDEX
HX  - HEAT INDEX




USA.gov is the U.S. government's official web portal to all federal, state and local government web resources and services.